Location: Jaite
(41.2884°N, 81.5737°W)
Time: 09:44:56
(UTC+00:00)

Meteor 2-1 Rocket - Pass Details

Date: 18 January 2020
Orbit: 827 x 910 km, 81.3° (Epoch: 18 February)

Event Time Altitude Azimuth Distance (km) Brightness Sun altitude
Rises 00:12:50 0° 348° (NNW) 3,378 7.4 -20.1°
Reaches altitude 10° 00:15:15 10° 347° (NNW) 2,439 6.6 -20.6°
Maximum altitude 00:20:44 74° 263° (W) 864 4.3 -21.6°
Drops below altitude 10° 00:26:13 10° 179° (S) 2,438 6.7 -22.6°
Sets 00:28:37 0° 178° (S) 3,376 7.4 -23.1°
